DW8313 Weather Reports


Display with metric or nautical units.
time (UTC)temp
F
wind
direction
speed
MPH
gust
MPH
rain 1hr
in
rain 24hr
in
rain mn
in
humidity
%
barometer
mb
20260902013204 76 293 4.0 8.0 0.00 0.00 0.00 27 1010.9
20260902013004 76 295 4.0 8.0 0.00 0.00 0.00 26 1010.9
20260902012804 76 295 4.0 8.0 0.00 0.00 0.00 27 1011.0
20260902012625 76 296 4.0 8.0 0.00 0.00 0.00 27 1011.0
20260902012404 77 298 4.0 8.0 0.00 0.00 0.00 26 1010.9
20260902012204 77 301 3.0 8.0 0.00 0.00 0.00 27 1011.0
20260902012004 77 302 3.0 8.0 0.00 0.00 0.00 26 1010.9
20260902011804 77 306 3.0 8.0 0.00 0.00 0.00 27 1010.9
20260902011604 77 309 3.0 8.0 0.00 0.00 0.00 26 1010.9
20260902011404 78 311 3.0 8.0 0.00 0.00 0.00 26 1010.9
20260902011204 78 311 3.0 8.0 0.00 0.00 0.00 27 1010.9
20260902011025 78 312 3.0 8.0 0.00 0.00 0.00 26 1010.9
20260902010825 78 312 3.0 7.0 0.00 0.00 0.00 26 1010.9
20260902010625 78 309 3.0 8.0 0.00 0.00 0.00 26 1010.8
20260902010404 78 310 3.0 8.0 0.00 0.00 0.00 26 1010.9
20260902010204 78 310 4.0 8.0 0.00 0.00 0.00 26 1010.8
20260902010005 78 306 4.0 8.0 0.00 0.00 0.00 27 1010.9
20260902005804 78 303 4.0 11.0 0.00 0.00 0.00 27 1010.9
20260902005604 78 300 4.0 11.0 0.00 0.00 0.00 28 1010.9
20260902005404 78 297 5.0 11.0 0.00 0.00 0.00 27 1010.9
20260902005204 78 300 5.0 11.0 0.00 0.00 0.00 27 1010.9
20260902005004 78 300 5.0 11.0 0.00 0.00 0.00 27 1010.9
20260902004804 79 300 4.0 11.0 0.00 0.00 0.00 28 1010.8
20260902004604 79 298 5.0 13.0 0.00 0.00 0.00 28 1010.9
20260902004425 79 298 5.0 13.0 0.00 0.00 0.00 28 1010.9
20260902004204 79 297 4.0 13.0 0.00 0.00 0.00 28 1010.9
20260902004004 79 297 5.0 13.0 0.00 0.00 0.00 29 1010.9
20260902003804 79 296 5.0 13.0 0.00 0.00 0.00 28 1010.9
20260902003604 79 301 4.0 11.0 0.00 0.00 0.00 28 1010.9
20260902003404 79 302 4.0 9.0 0.00 0.00 0.00 29 1010.9
20260902003204 79 297 4.0 9.0 0.00 0.00 0.00 29 1010.9
20260902003004 80 296 4.0 10.0 0.00 0.00 0.00 29 1010.9
20260902002825 79 295 4.0 10.0 0.00 0.00 0.00 29 1010.9
20260902002604 79 293 5.0 10.0 0.00 0.00 0.00 30 1010.9
20260902002404 79 292 5.0 10.0 0.00 0.00 0.00 30 1010.9
20260902002204 79 293 5.0 10.0 0.00 0.00 0.00 30 1010.9
20260902002004 80 294 5.0 10.0 0.00 0.00 0.00 30 1010.9
20260902001804 80 295 5.0 10.0 0.00 0.00 0.00 30 1010.9
20260902001605 80 295 5.0 12.0 0.00 0.00 0.00 30 1010.9
20260902001405 80 294 5.0 12.0 0.00 0.00 0.00 31 1011.0
20260902001204 80 293 5.0 12.0 0.00 0.00 0.00 31 1011.0
20260902001004 80 293 5.0 12.0 0.00 0.00 0.00 30 1011.0
20260902000805 80 292 6.0 12.0 0.00 0.00 0.00 30 1011.0
20260902000626 80 293 6.0 12.0 0.00 0.00 0.00 30 1011.0
20260902000406 80 294 6.0 12.0 0.00 0.00 0.00 29 1011.0
20260902000204 80 292 5.0 12.0 0.00 0.00 0.00 28 1010.9
20260902000004 81 292 5.0 12.0 0.00 0.00 0.00 27 1010.9
20260901235804 81 291 5.0 10.0 0.00 0.00 0.00 27 1010.9
20260901235604 81 290 5.0 10.0 0.00 0.00 0.00 27 1010.9
20260901235404 80 288 4.0 9.0 0.00 0.00 0.00 26 1010.9
20260901235204 80 294 5.0 11.0 0.00 0.00 0.00 25 1010.9
20260901235025 80 294 5.0 11.0 0.00 0.00 0.00 25 1010.9
20260901234804 81 293 5.0 11.0 0.00 0.00 0.00 25 1010.9
20260901234604 81 291 5.0 11.0 0.00 0.00 0.00 24 1010.9
20260901234404 81 292 5.0 11.0 0.00 0.00 0.00 25 1010.9
20260901234225 81 292 5.0 11.0 0.00 0.00 0.00 24 1010.9
20260901234025 81 290 4.0 11.0 0.00 0.00 0.00 24 1010.8
20260901233804 82 291 5.0 11.0 0.00 0.00 0.00 24 1010.8
20260901233625 82 295 4.0 10.0 0.00 0.00 0.00 23 1010.9
20260901233404 82 293 4.0 10.0 0.00 0.00 0.00 24 1010.9
20260901233204 82 291 4.0 10.0 0.00 0.00 0.00 24 1010.9
20260901233004 82 293 3.0 10.0 0.00 0.00 0.00 23 1010.8
20260901232804 82 292 3.0 9.0 0.00 0.00 0.00 25 1010.9
20260901232604 82 296 3.0 9.0 0.00 0.00 0.00 24 1010.9
20260901232404 82 304 3.0 9.0 0.00 0.00 0.00 25 1010.8
20260901232225 81 305 3.0 9.0 0.00 0.00 0.00 24 1010.8
20260901232004 82 301 3.0 9.0 0.00 0.00 0.00 25 1010.8
20260901231804 82 300 3.0 10.0 0.00 0.00 0.00 25 1010.9
20260901231625 82 297 4.0 10.0 0.00 0.00 0.00 25 1010.9
20260901231404 82 293 4.0 10.0 0.00 0.00 0.00 25 1011.0
20260901231204 82 291 4.0 10.0 0.00 0.00 0.00 25 1011.0
20260901231004 82 290 4.0 10.0 0.00 0.00 0.00 25 1011.0
20260901230804 82 291 3.0 10.0 0.00 0.00 0.00 25 1011.0
20260901230604 82 286 2.0 7.0 0.00 0.00 0.00 24 1011.0
20260901230404 82 281 1.0 6.0 0.00 0.00 0.00 24 1011.0
20260901230225 82 284 1.0 6.0 0.00 0.00 0.00 23 1011.0
20260901230025 83 318 0.0 2.0 0.00 0.00 0.00 24 1011.1
20260901225804 82 293 0.0 3.0 0.00 0.00 0.00 24 1011.1
20260901225604 82 297 1.0 8.0 0.00 0.00 0.00 24 1011.1
20260901225404 82 296 1.0 8.0 0.00 0.00 0.00 25 1011.2
20260901225204 81 303 1.0 8.0 0.00 0.00 0.00 24 1011.2
20260901225004 81 321 2.0 8.0 0.00 0.00 0.00 24 1011.2
20260901224804 81 308 2.0 8.0 0.00 0.00 0.00 24 1011.2
20260901224604 81 283 3.0 9.0 0.00 0.00 0.00 25 1011.3
20260901224404 81 277 3.0 9.0 0.00 0.00 0.00 25 1011.2
20260901224204 81 280 4.0 9.0 0.00 0.00 0.00 26 1011.4
20260901224005 81 279 4.0 9.0 0.00 0.00 0.00 25 1011.4
20260901223804 81 280 5.0 11.0 0.00 0.00 0.00 24 1011.3
20260901223625 81 290 4.0 11.0 0.00 0.00 0.00 25 1011.4
20260901223404 82 288 4.0 11.0 0.00 0.00 0.00 24 1011.4
20260901223207 82 286 4.0 11.0 0.00 0.00 0.00 25 1011.4
20260901223005 82 277 4.0 11.0 0.00 0.00 0.00 25 1011.4
20260901222804 82 271 3.0 7.0 0.00 0.00 0.00 25 1011.4
20260901222604 82 274 4.0 8.0 0.00 0.00 0.00 24 1011.4
20260901222404 81 288 4.0 9.0 0.00 0.00 0.00 25 1011.4
20260901222225 81 287 4.0 9.0 0.00 0.00 0.00 25 1011.4
20260901222004 81 288 4.0 9.0 0.00 0.00 0.00 24 1011.4
20260901221805 81 295 4.0 9.0 0.00 0.00 0.00 24 1011.4
20260901221604 81 292 4.0 9.0 0.00 0.00 0.00 25 1011.3
20260901221405 81 291 3.0 9.0 0.00 0.00 0.00 24 1011.3
20260901221204 81 293 3.0 8.0 0.00 0.00 0.00 23 1011.4
20260901221005 81 291 2.0 8.0 0.00 0.00 0.00 23 1011.4
20260901220826 81 277 3.0 8.0 0.00 0.00 0.00 24 1011.5
20260901220604 81 278 2.0 8.0 0.00 0.00 0.00 24 1011.5
20260901220425 81 280 3.0 11.0 0.00 0.00 0.00 22 1011.5
20260901220204 81 286 4.0 11.0 0.00 0.00 0.00 22 1011.5
20260901220004 81 290 5.0 11.0 0.00 0.00 0.00 22 1011.6
20260901215825 81 298 5.0 13.0 0.00 0.00 0.00 23 1011.5
20260901215604 82 296 5.0 14.0 0.00 0.00 0.00 22 1011.6
20260901215404 82 299 5.0 14.0 0.00 0.00 0.00 22 1011.6
20260901215225 82 299 5.0 14.0 0.00 0.00 0.00 23 1011.6
20260901215004 81 299 6.0 14.0 0.00 0.00 0.00 22 1011.6
20260901214804 81 299 5.0 10.0 0.00 0.00 0.00 22 1011.5
20260901214625 81 299 5.0 11.0 0.00 0.00 0.00 22 1011.7
20260901214404 81 295 5.0 11.0 0.00 0.00 0.00 22 1011.7
20260901214204 81 287 4.0 11.0 0.00 0.00 0.00 22 1011.7
20260901214004 81 280 3.0 11.0 0.00 0.00 0.00 22 1011.7
20260901213804 81 281 3.0 11.0 0.00 0.00 0.00 21 1011.7
20260901213604 81 287 4.0 9.0 0.00 0.00 0.00 23 1011.7
20260901213404 81 286 4.0 9.0 0.00 0.00 0.00 23 1011.8
20260901213204 81 294 4.0 9.0 0.00 0.00 0.00 22 1011.7
20260901213004 81 296 4.0 9.0 0.00 0.00 0.00 23 1011.7
20260901212804 81 294 4.0 8.0 0.00 0.00 0.00 23 1011.8
20260901212604 81 292 4.0 9.0 0.00 0.00 0.00 24 1011.7
20260901212404 81 292 4.0 10.0 0.00 0.00 0.00 23 1011.7
20260901212204 81 292 5.0 10.0 0.00 0.00 0.00 24 1011.7
20260901212025 81 292 5.0 13.0 0.00 0.00 0.00 24 1011.8
20260901211805 81 296 4.0 13.0 0.00 0.00 0.00 23 1011.8
20260901211604 81 299 4.0 13.0 0.00 0.00 0.00 22 1011.8
20260901211425 81 299 4.0 13.0 0.00 0.00 0.00 23 1011.8
20260901211204 81 299 4.0 13.0 0.00 0.00 0.00 23 1011.8
20260901211004 81 302 4.0 10.0 0.00 0.00 0.00 23 1011.8
20260901210805 81 296 4.0 12.0 0.00 0.00 0.00 22 1011.9
20260901210604 81 295 4.0 12.0 0.00 0.00 0.00 23 1011.8
20260901210426 81 294 4.0 12.0 0.00 0.00 0.00 23 1011.9
20260901210204 81 294 4.0 12.0 0.00 0.00 0.00 24 1011.8
20260901210004 81 291 4.0 12.0 0.00 0.00 0.00 24 1011.8
20260901205825 81 294 3.0 9.0 0.00 0.00 0.00 24 1011.9
20260901205604 81 288 4.0 9.0 0.00 0.00 0.00 24 1011.9
20260901205404 81 289 3.0 8.0 0.00 0.00 0.00 24 1011.9
20260901205225 81 287 3.0 8.0 0.00 0.00 0.00 25 1011.9
20260901205004 81 285 4.0 8.0 0.00 0.00 0.00 25 1011.9
20260901204825 81 289 4.0 8.0 0.00 0.00 0.00 25 1011.9
20260901204604 81 294 4.0 7.0 0.00 0.00 0.00 26 1011.9
20260901204404 81 297 4.0 9.0 0.00 0.00 0.00 26 1011.9
20260901204204 81 302 4.0 9.0 0.00 0.00 0.00 25 1011.9
20260901204025 81 301 4.0 9.0 0.00 0.00 0.00 26 1012.0
20260901203804 81 295 4.0 9.0 0.00 0.00 0.00 25 1012.0
20260901203604 81 300 4.0 9.0 0.00 0.00 0.00 26 1012.0
20260901203404 81 300 4.0 8.0 0.00 0.00 0.00 25 1012.0
20260901203204 81 297 4.0 8.0 0.00 0.00 0.00 23 1012.0
20260901203004 81 301 4.0 9.0 0.00 0.00 0.00 24 1012.1
20260901202804 81 306 4.0 9.0 0.00 0.00 0.00 25 1012.1
20260901202604 81 307 3.0 9.0 0.00 0.00 0.00 26 1012.1
20260901202404 81 308 4.0 9.0 0.00 0.00 0.00 26 1012.1
20260901202204 80 306 4.0 9.0 0.00 0.00 0.00 23 1012.2
20260901202004 80 305 4.0 9.0 0.00 0.00 0.00 24 1012.2
20260901201804 80 306 4.0 9.0 0.00 0.00 0.00 24 1012.2
20260901201625 80 302 4.0 9.0 0.00 0.00 0.00 23 1012.3
20260901201425 81 303 4.0 9.0 0.00 0.00 0.00 24 1012.3
20260901201205 81 300 3.0 9.0 0.00 0.00 0.00 24 1012.3
20260901201004 81 300 2.0 6.0 0.00 0.00 0.00 23 1012.3
20260901200825 81 293 2.0 6.0 0.00 0.00 0.00 24 1012.4
20260901200625 81 290 2.0 5.0 0.00 0.00 0.00 23 1012.4
20260901200404 80 288 2.0 7.0 0.00 0.00 0.00 22 1012.4
20260901200225 80 293 2.0 8.0 0.00 0.00 0.00 21 1012.4
20260901200004 80 298 2.0 8.0 0.00 0.00 0.00 23 1012.5
20260901195804 80 298 3.0 9.0 0.00 0.00 0.00 22 1012.5
20260901195604 80 298 3.0 9.0 0.00 0.00 0.00 23 1012.5
20260901195405 81 293 3.0 9.0 0.00 0.00 0.00 25 1012.5
20260901195204 81 295 3.0 9.0 0.00 0.00 0.00 24 1012.6
20260901195004 80 295 3.0 9.0 0.00 0.00 0.00 24 1012.5
20260901194804 80 296 3.0 9.0 0.00 0.00 0.00 24 1012.5
20260901194604 80 289 3.0 9.0 0.00 0.00 0.00 22 1012.5
20260901194404 80 295 2.0 7.0 0.00 0.00 0.00 22 1012.6
20260901194204 80 291 2.0 7.0 0.00 0.00 0.00 23 1012.6
20260901194004 80 285 2.0 7.0 0.00 0.00 0.00 23 1012.6
20260901193804 80 284 2.0 5.0 0.00 0.00 0.00 23 1012.7
20260901193604 80 291 2.0 5.0 0.00 0.00 0.00 23 1012.7
20260901193404 80 293 2.0 5.0 0.00 0.00 0.00 22 1012.7
20260901193204 80 287 2.0 5.0 0.00 0.00 0.00 22 1012.8
20260901193025 80 288 3.0 8.0 0.00 0.00 0.00 23 1012.8
20260901192804 80 284 3.0 8.0 0.00 0.00 0.00 25 1012.8
20260901192604 80 281 3.0 8.0 0.00 0.00 0.00 24 1012.8
20260901192404 80 283 3.0 8.0 0.00 0.00 0.00 23 1012.9
20260901192204 80 292 3.0 8.0 0.00 0.00 0.00 23 1012.9
20260901192004 80 298 2.0 7.0 0.00 0.00 0.00 23 1012.9
20260901191805 80 307 2.0 7.0 0.00 0.00 0.00 23 1012.9
20260901191604 80 319 1.0 5.0 0.00 0.00 0.00 23 1012.9
20260901191404 80 296 1.0 5.0 0.00 0.00 0.00 23 1013.0
20260901191205 80 263 1.0 5.0 0.00 0.00 0.00 23 1013.0
20260901191004 81 245 1.0 7.0 0.00 0.00 0.00 22 1013.0
20260901190804 80 245 2.0 7.0 0.00 0.00 0.00 24 1013.0
20260901190604 80 252 2.0 8.0 0.00 0.00 0.00 22 1013.0
20260901190404 80 264 2.0 8.0 0.00 0.00 0.00 22 1013.0
20260901190204 80 262 2.0 8.0 0.00 0.00 0.00 22 1013.1
20260901190004 80 260 2.0 8.0 0.00 0.00 0.00 23 1013.1
20260901185804 80 253 2.0 8.0 0.00 0.00 0.00 22 1013.1
20260901185604 80 261 1.0 7.0 0.00 0.00 0.00 22 1013.0
20260901185404 80 263 1.0 5.0 0.00 0.00 0.00 19 1013.1
20260901185204 80 279 1.0 5.0 0.00 0.00 0.00 20 1013.1
20260901185004 80 278 1.0 5.0 0.00 0.00 0.00 19 1013.1
20260901184804 79 295 1.0 5.0 0.00 0.00 0.00 22 1013.2
20260901184604 79 289 1.0 4.0 0.00 0.00 0.00 21 1013.2
20260901184404 79 275 1.0 6.0 0.00 0.00 0.00 20 1013.2
20260901184204 79 277 1.0 6.0 0.00 0.00 0.00 20 1013.2
20260901184004 79 284 2.0 6.0 0.00 0.00 0.00 19 1013.2
20260901183825 79 286 2.0 6.0 0.00 0.00 0.00 20 1013.2
20260901183604 78 291 2.0 6.0 0.00 0.00 0.00 20 1013.2
20260901183425 78 302 3.0 7.0 0.00 0.00 0.00 21 1013.2
20260901183204 78 305 3.0 7.0 0.00 0.00 0.00 20 1013.2
20260901183004 78 302 3.0 7.0 0.00 0.00 0.00 21 1013.2
20260901182804 78 301 3.0 7.0 0.00 0.00 0.00 20 1013.3
20260901182604 78 304 3.0 7.0 0.00 0.00 0.00 19 1013.2
20260901182404 78 301 3.0 6.0 0.00 0.00 0.00 20 1013.2
20260901182204 78 298 3.0 6.0 0.00 0.00 0.00 20 1013.2
20260901182004 78 303 3.0 6.0 0.00 0.00 0.00 20 1013.2
20260901181804 78 301 3.0 6.0 0.00 0.00 0.00 21 1013.2
20260901181604 78 301 2.0 6.0 0.00 0.00 0.00 22 1013.2
20260901181425 78 304 2.0 6.0 0.00 0.00 0.00 22 1013.2
20260901181204 78 298 2.0 6.0 0.00 0.00 0.00 21 1013.2
20260901181004 78 293 2.0 6.0 0.00 0.00 0.00 21 1013.2
20260901180825 78 301 1.0 5.0 0.00 0.00 0.00 23 1013.2
20260901180604 78 295 1.0 6.0 0.00 0.00 0.00 21 1013.2
20260901180404 78 294 2.0 6.0 0.00 0.00 0.00 21 1013.3
20260901180204 78 301 2.0 6.0 0.00 0.00 0.00 21 1013.3
20260901180004 77 298 2.0 6.0 0.00 0.00 0.00 24 1013.2
20260901175825 77 297 3.0 6.0 0.00 0.00 0.00 23 1013.2
20260901175625 77 298 3.0 6.0 0.00 0.00 0.00 22 1013.3
20260901175404 77 295 3.0 6.0 0.00 0.00 0.00 23 1013.2
20260901175204 77 291 3.0 6.0 0.00 0.00 0.00 22 1013.2
20260901175025 77 294 3.0 7.0 0.00 0.00 0.00 22 1013.2
20260901174804 77 291 2.0 7.0 0.00 0.00 0.00 22 1013.2
20260901174625 77 282 2.0 7.0 0.00 0.00 0.00 21 1013.2
20260901174404 77 277 2.0 7.0 0.00 0.00 0.00 23 1013.2
20260901174204 77 276 1.0 7.0 0.00 0.00 0.00 24 1013.2
20260901174005 77 252 1.0 5.0 0.00 0.00 0.00 24 1013.2
20260901173804 77 263 1.0 5.0 0.00 0.00 0.00 25 1013.1
20260901173604 77 274 1.0 5.0 0.00 0.00 0.00 24 1013.1
20260901173425 76 279 1.0 5.0 0.00 0.00 0.00 26 1013.1
20260901173225 76 281 1.0 5.0 0.00 0.00 0.00 26 1013.1
20260901173004 76 278 1.0 5.0 0.00 0.00 0.00 27 1013.0
20260901172804 76 275 1.0 5.0 0.00 0.00 0.00 26 1013.0
20260901172604 76 290 1.0 4.0 0.00 0.00 0.00 25 1013.0
20260901172404 76 303 1.0 4.0 0.00 0.00 0.00 25 1013.0
20260901172204 75 295 1.0 5.0 0.00 0.00 0.00 24 1013.1
20260901172004 75 300 1.0 5.0 0.00 0.00 0.00 24 1013.1
20260901171804 75 299 2.0 6.0 0.00 0.00 0.00 27 1013.0
20260901171604 75 299 2.0 6.0 0.00 0.00 0.00 26 1013.0
20260901171404 75 294 2.0 6.0 0.00 0.00 0.00 25 1013.1
20260901171204 74 298 3.0 6.0 0.00 0.00 0.00 25 1013.1
20260901171005 74 294 2.0 6.0 0.00 0.00 0.00 26 1013.0
20260901170804 74 295 2.0 6.0 0.00 0.00 0.00 25 1013.0
20260901170604 74 295 3.0 6.0 0.00 0.00 0.00 25 1012.9
20260901170404 74 297 3.0 6.0 0.00 0.00 0.00 25 1012.9
20260901170205 74 293 2.0 5.0 0.00 0.00 0.00 26 1012.9
20260901170004 74 294 2.0 5.0 0.00 0.00 0.00 25 1012.9
20260901165804 74 293 2.0 5.0 0.00 0.00 0.00 26 1012.8
20260901165604 74 291 2.0 5.0 0.00 0.00 0.00 25 1012.9
20260901165404 74 288 1.0 4.0 0.00 0.00 0.00 25 1012.9
20260901165205 74 290 2.0 4.0 0.00 0.00 0.00 25 1012.9
20260901165004 74 293 1.0 4.0 0.00 0.00 0.00 26 1012.9
20260901164805 74 292 1.0 4.0 0.00 0.00 0.00 25 1012.9
20260901164604 74 285 1.0 4.0 0.00 0.00 0.00 27 1012.8
20260901164404 74 285 1.0 4.0 0.00 0.00 0.00 26 1012.8
20260901164204 74 282 1.0 4.0 0.00 0.00 0.00 27 1012.7
20260901164025 74 281 1.0 4.0 0.00 0.00 0.00 26 1012.8
20260901163804 74 276 1.0 4.0 0.00 0.00 0.00 25 1012.7
20260901163604 74 278 1.0 4.0 0.00 0.00 0.00 26 1012.7
20260901163404 73 275 1.0 4.0 0.00 0.00 0.00 25 1012.8
20260901163204 73 278 1.0 4.0 0.00 0.00 0.00 25 1012.8
20260901163004 73 271 1.0 4.0 0.00 0.00 0.00 26 1012.8
20260901162804 73 275 1.0 4.0 0.00 0.00 0.00 26 1012.8
20260901162625 73 280 0.0 3.0 0.00 0.00 0.00 24 1012.8
20260901162404 73 290 0.0 3.0 0.00 0.00 0.00 24 1012.8
20260901162204 73 284 0.0 3.0 0.00 0.00 0.00 25 1012.8
20260901162004 73 280 0.0 3.0 0.00 0.00 0.00 26 1012.7
20260901161804 73 290 0.0 3.0 0.00 0.00 0.00 25 1012.7
20260901161604 72 291 0.0 3.0 0.00 0.00 0.00 25 1012.8
20260901161404 72 291 1.0 3.0 0.00 0.00 0.00 24 1012.7
20260901161204 72 275 1.0 4.0 0.00 0.00 0.00 25 1012.7
20260901161004 72 286 1.0 5.0 0.00 0.00 0.00 25 1012.7
20260901160825 72 285 1.0 5.0 0.00 0.00 0.00 25 1012.7
20260901160604 72 291 2.0 5.0 0.00 0.00 0.00 26 1012.7
20260901160404 72 293 2.0 5.0 0.00 0.00 0.00 26 1012.7
20260901160204 72 300 2.0 5.0 0.00 0.00 0.00 25 1012.6
20260901160005 72 302 1.0 4.0 0.00 0.00 0.00 26 1012.6
20260901155804 72 302 1.0 4.0 0.00 0.00 0.00 26 1012.6
20260901155604 72 299 1.0 4.0 0.00 0.00 0.00 26 1012.6
20260901155404 72 286 0.0 3.0 0.00 0.00 0.00 26 1012.6
20260901155204 72 294 0.0 2.0 0.00 0.00 0.00 27 1012.6
20260901155004 72 0 0.0 0.0 0.00 0.00 0.00 25 1012.6
20260901154804 72 262 0.0 1.0 0.00 0.00 0.00 24 1012.6
20260901154604 72 262 0.0 1.0 0.00 0.00 0.00 24 1012.7
20260901154404 72 262 0.0 1.0 0.00 0.00 0.00 24 1012.6
20260901154225 72 262 0.0 1.0 0.00 0.00 0.00 23 1012.7
20260901154004 72 262 0.0 1.0 0.00 0.00 0.00 22 1012.7
20260901153804 72 0 0.0 0.0 0.00 0.00 0.00 22 1012.6
20260901153604 72 0 0.0 0.0 0.00 0.00 0.00 22 1012.6
20260901153404 72 0 0.0 0.0 0.00 0.00 0.00 22 1012.5
20260901153204 72 0 0.0 0.0 0.00 0.00 0.00 23 1012.6
20260901153025 72 0 0.0 0.0 0.00 0.00 0.00 22 1012.6
20260901152804 72 0 0.0 0.0 0.00 0.00 0.00 21 1012.6
20260901152604 72 0 0.0 0.0 0.00 0.00 0.00 22 1012.5
20260901152425 72 0 0.0 0.0 0.00 0.00 0.00 23 1012.5
20260901152204 72 0 0.0 0.0 0.00 0.00 0.00 22 1012.5
20260901152004 72 0 0.0 0.0 0.00 0.00 0.00 22 1012.6
20260901151805 72 0 0.0 0.0 0.00 0.00 0.00 21 1012.5
20260901151605 72 0 0.0 0.0 0.00 0.00 0.00 22 1012.5
20260901151425 71 0 0.0 0.0 0.00 0.00 0.00 22 1012.5
20260901151204 71 0 0.0 0.0 0.00 0.00 0.00 23 1012.5
20260901151004 70 0 0.0 0.0 0.00 0.00 0.00 23 1012.5
20260901150804 69 0 0.0 0.0 0.00 0.00 0.00 22 1012.5
20260901150604 69 0 0.0 0.0 0.00 0.00 0.00 22 1012.5
20260901150405 69 0 0.0 0.0 0.00 0.00 0.00 22 1012.5
20260901150204 69 330 0.0 1.0 0.00 0.00 0.00 21 1012.5
20260901150005 70 330 0.0 1.0 0.00 0.00 0.00 22 1012.5
20260901145805 70 330 0.0 1.0 0.00 0.00 0.00 22 1012.5
20260901145605 71 330 0.0 1.0 0.00 0.00 0.00 23 1012.5
20260901145404 72 330 0.0 1.0 0.00 0.00 0.00 20 1012.5
20260901145225 72 0 0.0 0.0 0.00 0.00 0.00 20 1012.4
20260901145004 73 0 0.0 0.0 0.00 0.00 0.00 19 1012.4
20260901144825 73 0 0.0 0.0 0.00 0.00 0.00 19 1012.4
20260901144604 72 0 0.0 0.0 0.00 0.00 0.00 19 1012.4
20260901144404 72 0 0.0 0.0 0.00 0.00 0.00 18 1012.4
20260901144204 71 0 0.0 0.0 0.00 0.00 0.00 18 1012.4
20260901144004 71 0 0.0 0.0 0.00 0.00 0.00 18 1012.3
20260901143804 70 0 0.0 0.0 0.00 0.00 0.00 19 1012.3
20260901143604 70 0 0.0 0.0 0.00 0.00 0.00 19 1012.3
20260901143404 69 111 0.0 2.0 0.00 0.00 0.00 19 1012.2
20260901143204 69 114 1.0 2.0 0.00 0.00 0.00 20 1012.1
20260901143004 68 116 1.0 3.0 0.00 0.00 0.00 19 1012.2
20260901142804 68 115 1.0 3.0 0.00 0.00 0.00 19 1012.1
20260901142604 67 114 2.0 3.0 0.00 0.00 0.00 19 1012.1
20260901142404 67 113 2.0 3.0 0.00 0.00 0.00 18 1012.1
20260901142204 67 108 2.0 3.0 0.00 0.00 0.00 18 1012.0
20260901142005 66 102 2.0 3.0 0.00 0.00 0.00 19 1012.0
20260901141804 66 99 1.0 3.0 0.00 0.00 0.00 18 1012.0
20260901141604 66 98 2.0 3.0 0.00 0.00 0.00 18 1012.0
20260901141404 65 97 2.0 3.0 0.00 0.00 0.00 18 1011.9
20260901141205 65 97 1.0 3.0 0.00 0.00 0.00 18 1012.0
20260901141004 65 94 1.0 3.0 0.00 0.00 0.00 18 1011.9
20260901140804 64 93 1.0 3.0 0.00 0.00 0.00 18 1011.9
20260901140604 64 87 1.0 3.0 0.00 0.00 0.00 18 1011.8
20260901140404 64 87 1.0 3.0 0.00 0.00 0.00 18 1011.8
20260901140204 64 90 1.0 3.0 0.00 0.00 0.00 18 1011.8
20260901140005 64 96 1.0 2.0 0.00 0.00 0.00 18 1011.7
20260901135804 64 98 0.0 2.0 0.00 0.00 0.00 18 1011.7
20260901135625 64 101 1.0 2.0 0.00 0.00 0.00 19 1011.7
20260901135404 64 109 1.0 2.0 0.00 0.00 0.00 19 1011.7
20260901135204 63 113 1.0 2.0 0.00 0.00 0.00 19 1011.7
20260901135025 64 113 1.0 2.0 0.00 0.00 0.00 20 1011.7
20260901134804 63 113 0.0 2.0 0.00 0.00 0.00 19 1011.7
20260901134604 63 117 0.0 2.0 0.00 0.00 0.00 20 1011.6
20260901134425 63 116 0.0 2.0 0.00 0.00 0.00 20 1011.6
20260901134204 63 0 0.0 0.0 0.00 0.00 0.00 19 1011.5
20260901134025 63 0 0.0 0.0 0.00 0.00 0.00 20 1011.4
20260901133804 63 101 0.0 1.0 0.00 0.00 0.00 20 1011.4
20260901133604 63 102 0.0 2.0 0.00 0.00 0.00 20 1011.4
20260901133404 63 102 0.0 2.0 0.00 0.00 0.00 20 1011.3
20260901133204 63 107 0.0 2.0 0.00 0.00 0.00 20 1011.3
20260901133004 63 111 0.0 2.0 0.00 0.00 0.00 20 1011.3
20260901132804 63 111 1.0 2.0 0.00 0.00 0.00 20 1011.3
20260901132604 63 106 1.0 2.0 0.00 0.00 0.00 20 1011.3
20260901132404 63 104 1.0 2.0 0.00 0.00 0.00 20 1011.2
20260901132204 62 104 1.0 2.0 0.00 0.00 0.00 20 1011.3
20260901132004 62 100 1.0 2.0 0.00 0.00 0.00 20 1011.3
20260901131804 62 93 0.0 2.0 0.00 0.00 0.00 20 1011.2
20260901131604 62 85 0.0 2.0 0.00 0.00 0.00 21 1011.2
20260901131404 63 86 1.0 2.0 0.00 0.00 0.00 21 1011.2
20260901131204 63 88 1.0 3.0 0.00 0.00 0.00 20 1011.2
20260901131025 63 89 1.0 3.0 0.00 0.00 0.00 20 1011.2
20260901130804 63 89 1.0 3.0 0.00 0.00 0.00 20 1011.2
20260901130604 63 90 1.0 3.0 0.00 0.00 0.00 20 1011.2
20260901130404 63 89 1.0 3.0 0.00 0.00 0.00 21 1011.2
20260901130225 63 88 1.0 3.0 0.00 0.00 0.00 21 1011.2
20260901130026 63 86 1.0 3.0 0.00 0.00 0.00 21 1011.2
20260901125804 63 85 1.0 2.0 0.00 0.00 0.00 21 1011.2
20260901125604 63 85 1.0 2.0 0.00 0.00 0.00 21 1011.2
20260901125404 63 84 0.0 2.0 0.00 0.00 0.00 21 1011.2
20260901125225 63 82 0.0 2.0 0.00 0.00 0.00 22 1011.2
20260901125004 63 97 0.0 1.0 0.00 0.00 0.00 23 1011.2
20260901124804 63 97 0.0 1.0 0.00 0.00 0.00 21 1011.2
20260901124604 63 97 0.0 1.0 0.00 0.00 0.00 21 1011.2
20260901124404 63 102 0.0 1.0 0.00 0.00 0.00 22 1011.2
20260901124204 63 102 0.0 1.0 0.00 0.00 0.00 23 1011.2
20260901124004 63 0 0.0 0.0 0.00 0.00 0.00 23 1011.1
20260901123825 63 0 0.0 0.0 0.00 0.00 0.00 23 1011.1
20260901123604 63 0 0.0 0.0 0.00 0.00 0.00 23 1011.1
20260901123404 63 0 0.0 0.0 0.00 0.00 0.00 24 1011.1
20260901123204 63 0 0.0 0.0 0.00 0.00 0.00 23 1011.1
20260901123025 63 0 0.0 0.0 0.00 0.00 0.00 23 1011.1
20260901122804 63 102 0.0 1.0 0.00 0.00 0.00 22 1011.1
20260901122604 63 105 0.0 2.0 0.00 0.00 0.00 22 1011.1
20260901122404 62 106 1.0 2.0 0.00 0.00 0.00 22 1011.2
20260901122204 62 106 1.0 2.0 0.00 0.00 0.00 22 1011.1
20260901122004 62 106 1.0 2.0 0.00 0.00 0.00 23 1011.1
20260901121804 62 107 1.0 2.0 0.00 0.00 0.00 23 1011.1
20260901121604 62 106 0.0 2.0 0.00 0.00 0.00 23 1011.1
20260901121425 62 103 0.0 2.0 0.00 0.00 0.00 24 1011.2
20260901121204 62 97 0.0 1.0 0.00 0.00 0.00 24 1011.1
20260901121004 62 97 0.0 1.0 0.00 0.00 0.00 25 1011.1
20260901120804 62 97 0.0 1.0 0.00 0.00 0.00 26 1011.1
20260901120604 62 97 0.0 1.0 0.00 0.00 0.00 27 1011.1
20260901120404 62 96 0.0 1.0 0.00 0.00 0.00 28 1011.2
20260901120204 62 92 0.0 2.0 0.00 0.00 0.00 28 1011.2
20260901120004 62 91 1.0 3.0 0.00 0.00 0.00 29 1011.2
20260901115804 61 92 1.0 3.0 0.00 0.00 0.00 30 1011.2
20260901115604 61 91 1.0 3.0 0.00 0.00 0.00 30 1011.2
20260901115404 61 91 1.0 3.0 0.00 0.00 0.00 30 1011.2
20260901115225 61 91 1.0 3.0 0.00 0.00 0.00 29 1011.3
20260901115004 61 91 0.0 2.0 0.00 0.00 0.00 30 1011.3
20260901114804 62 82 0.0 1.0 0.00 0.00 0.00 31 1011.3
20260901114604 62 86 0.0 1.0 0.00 0.00 0.00 32 1011.3
20260901114404 62 90 0.0 3.0 0.00 0.00 0.00 33 1011.4
20260901114204 61 90 0.0 3.0 0.00 0.00 0.00 34 1011.4
20260901114004 61 90 0.0 3.0 0.00 0.00 0.00 35 1011.4
20260901113825 61 90 0.0 3.0 0.00 0.00 0.00 35 1011.4
20260901113625 61 90 0.0 3.0 0.00 0.00 0.00 35 1011.4
20260901113404 62 92 0.0 1.0 0.00 0.00 0.00 36 1011.4
20260901113204 62 0 0.0 0.0 0.00 0.00 0.00 37 1011.4
20260901113004 62 0 0.0 0.0 0.00 0.00 0.00 37 1011.4
20260901112804 62 0 0.0 0.0 0.00 0.00 0.00 37 1011.4
20260901112625 62 0 0.0 0.0 0.00 0.00 0.00 37 1011.4
20260901112425 62 0 0.0 0.0 0.00 0.00 0.00 37 1011.4
20260901112204 62 0 0.0 0.0 0.00 0.00 0.00 38 1011.4
20260901112004 62 0 0.0 0.0 0.00 0.00 0.00 37 1011.4
20260901111804 62 0 0.0 0.0 0.00 0.00 0.00 37 1011.4
20260901111604 62 0 0.0 0.0 0.00 0.00 0.00 37 1011.3
20260901111405 62 0 0.0 0.0 0.00 0.00 0.00 37 1011.4
20260901111204 63 0 0.0 0.0 0.00 0.00 0.00 37 1011.3
20260901111005 63 0 0.0 0.0 0.00 0.00 0.00 38 1011.3
20260901110825 63 0 0.0 0.0 0.00 0.00 0.00 38 1011.3
20260901110604 63 0 0.0 0.0 0.00 0.00 0.00 38 1011.3
20260901110404 63 0 0.0 0.0 0.00 0.00 0.00 38 1011.2
20260901110204 63 0 0.0 0.0 0.00 0.00 0.00 38 1011.3
20260901110004 63 0 0.0 0.0 0.00 0.00 0.00 36 1011.3
20260901105804 63 0 0.0 0.0 0.00 0.00 0.00 34 1011.3
20260901105625 62 0 0.0 0.0 0.00 0.00 0.00 35 1011.3
20260901105404 62 104 0.0 1.0 0.00 0.00 0.00 34 1011.2
20260901105204 62 104 0.0 1.0 0.00 0.00 0.00 32 1011.2
20260901105004 63 104 0.0 1.0 0.00 0.00 0.00 33 1011.2
20260901104804 63 104 0.0 1.0 0.00 0.00 0.00 32 1011.2
20260901104604 63 104 0.0 1.0 0.00 0.00 0.00 32 1011.2
20260901104404 63 0 0.0 0.0 0.00 0.00 0.00 33 1011.3
20260901104204 63 84 0.0 1.0 0.00 0.00 0.00 34 1011.3
20260901104004 63 84 0.0 1.0 0.00 0.00 0.00 34 1011.3
20260901103804 63 84 0.0 1.0 0.00 0.00 0.00 34 1011.3
20260901103604 63 84 0.0 1.0 0.00 0.00 0.00 34 1011.3
20260901103404 63 84 0.0 1.0 0.00 0.00 0.00 34 1011.3
20260901103225 62 0 0.0 0.0 0.00 0.00 0.00 34 1011.3
20260901103004 62 82 0.0 2.0 0.00 0.00 0.00 34 1011.4
20260901102804 62 84 1.0 3.0 0.00 0.00 0.00 34 1011.4
20260901102604 62 83 1.0 3.0 0.00 0.00 0.00 34 1011.3
20260901102404 62 85 1.0 3.0 0.00 0.00 0.00 34 1011.3
20260901102204 62 86 1.0 3.0 0.00 0.00 0.00 34 1011.4
20260901102025 62 86 1.0 3.0 0.00 0.00 0.00 34 1011.4
20260901101804 62 88 1.0 2.0 0.00 0.00 0.00 35 1011.4
20260901101604 62 94 0.0 2.0 0.00 0.00 0.00 36 1011.4
20260901101404 62 93 0.0 2.0 0.00 0.00 0.00 38 1011.4
20260901101205 63 0 0.0 0.0 0.00 0.00 0.00 37 1011.4
20260901101004 63 0 0.0 0.0 0.00 0.00 0.00 37 1011.4
20260901100804 63 0 0.0 0.0 0.00 0.00 0.00 38 1011.4
20260901100604 63 0 0.0 0.0 0.00 0.00 0.00 39 1011.3
20260901100425 63 113 0.0 1.0 0.00 0.00 0.00 39 1011.4
20260901100204 63 113 0.0 1.0 0.00 0.00 0.00 39 1011.4
20260901100004 63 113 0.0 1.0 0.00 0.00 0.00 39 1011.4
20260901095805 63 113 0.0 1.0 0.00 0.00 0.00 39 1011.4
20260901095604 63 113 0.0 1.0 0.00 0.00 0.00 38 1011.4
20260901095404 63 0 0.0 0.0 0.00 0.00 0.00 39 1011.4
20260901095225 63 0 0.0 0.0 0.00 0.00 0.00 39 1011.4
20260901095004 63 0 0.0 0.0 0.00 0.00 0.00 39 1011.3
20260901094804 63 113 0.0 1.0 0.00 0.00 0.00 40 1011.3
20260901094604 63 113 0.0 1.0 0.00 0.00 0.00 40 1011.3
20260901094404 63 113 0.0 1.0 0.00 0.00 0.00 41 1011.3
20260901094204 63 113 0.0 1.0 0.00 0.00 0.00 41 1011.3
20260901094004 63 113 0.0 1.0 0.00 0.00 0.00 41 1011.2
20260901093804 63 0 0.0 0.0 0.00 0.00 0.00 42 1011.3
20260901093604 63 0 0.0 0.0 0.00 0.00 0.00 41 1011.3
20260901093425 63 0 0.0 0.0 0.00 0.00 0.00 41 1011.2
20260901093225 63 0 0.0 0.0 0.00 0.00 0.00 41 1011.4
20260901093004 63 0 0.0 0.0 0.00 0.00 0.00 42 1011.3
20260901092805 63 94 0.0 1.0 0.00 0.00 0.00 42 1011.4
20260901092625 63 94 0.0 1.0 0.00 0.00 0.00 42 1011.4
20260901092404 63 94 0.0 1.0 0.00 0.00 0.00 42 1011.3
20260901092204 63 93 0.0 2.0 0.00 0.00 0.00 42 1011.4
20260901092004 62 92 1.0 3.0 0.00 0.00 0.00 43 1011.4
20260901091805 62 92 1.0 3.0 0.00 0.00 0.00 43 1011.4
20260901091604 62 92 1.0 3.0 0.00 0.00 0.00 44 1011.4
20260901091405 62 90 1.0 3.0 0.00 0.00 0.00 44 1011.4
20260901091225 62 90 1.0 3.0 0.00 0.00 0.00 43 1011.3
20260901091004 62 86 0.0 2.0 0.00 0.00 0.00 44 1011.4
20260901090825 62 86 0.0 2.0 0.00 0.00 0.00 44 1011.3
20260901090604 62 86 0.0 2.0 0.00 0.00 0.00 45 1011.4
20260901090404 62 0 0.0 0.0 0.00 0.00 0.00 45 1011.3
20260901090204 63 84 0.0 2.0 0.00 0.00 0.00 45 1011.3
20260901090025 63 83 0.0 2.0 0.00 0.00 0.00 44 1011.4
20260901085805 63 85 1.0 2.0 0.00 0.00 0.00 44 1011.4
20260901085604 63 86 1.0 2.0 0.00 0.00 0.00 43 1011.3
20260901085404 63 86 1.0 2.0 0.00 0.00 0.00 43 1011.4
20260901085225 63 86 1.0 2.0 0.00 0.00 0.00 42 1011.4
20260901085025 63 89 1.0 2.0 0.00 0.00 0.00 41 1011.4
20260901084804 63 86 1.0 3.0 0.00 0.00 0.00 41 1011.5
20260901084604 63 86 1.0 3.0 0.00 0.00 0.00 41 1011.5
20260901084404 63 85 0.0 3.0 0.00 0.00 0.00 41 1011.5
20260901084225 63 85 0.0 3.0 0.00 0.00 0.00 41 1011.5
20260901084004 63 83 0.0 3.0 0.00 0.00 0.00 41 1011.4
20260901083804 63 80 0.0 3.0 0.00 0.00 0.00 41 1011.4
20260901083604 63 82 0.0 1.0 0.00 0.00 0.00 41 1011.4
20260901083404 63 0 0.0 0.0 0.00 0.00 0.00 41 1011.4
20260901083204 63 0 0.0 0.0 0.00 0.00 0.00 41 1011.4
20260901083004 63 0 0.0 0.0 0.00 0.00 0.00 40 1011.4
20260901082804 63 89 0.0 2.0 0.00 0.00 0.00 40 1011.4
20260901082604 63 88 0.0 2.0 0.00 0.00 0.00 41 1011.3
20260901082404 63 87 0.0 2.0 0.00 0.00 0.00 41 1011.3
20260901082204 63 88 0.0 2.0 0.00 0.00 0.00 40 1011.4
20260901082004 63 86 1.0 2.0 0.00 0.00 0.00 40 1011.4
20260901081804 63 85 1.0 2.0 0.00 0.00 0.00 40 1011.5
20260901081604 63 85 0.0 2.0 0.00 0.00 0.00 40 1011.4
20260901081404 64 84 0.0 2.0 0.00 0.00 0.00 40 1011.5
20260901081225 64 84 0.0 2.0 0.00 0.00 0.00 40 1011.5
20260901081004 64 92 0.0 2.0 0.00 0.00 0.00 41 1011.5
20260901080804 64 95 0.0 2.0 0.00 0.00 0.00 41 1011.6
20260901080604 64 95 0.0 2.0 0.00 0.00 0.00 41 1011.6
20260901080404 64 95 0.0 2.0 0.00 0.00 0.00 40 1011.6
20260901080204 64 96 0.0 2.0 0.00 0.00 0.00 40 1011.6
20260901080004 64 105 0.0 2.0 0.00 0.00 0.00 40 1011.6
20260901075825 64 108 1.0 2.0 0.00 0.00 0.00 40 1011.6
20260901075604 64 112 1.0 2.0 0.00 0.00 0.00 40 1011.6
20260901075404 65 115 1.0 2.0 0.00 0.00 0.00 39 1011.6
20260901075204 65 116 1.0 2.0 0.00 0.00 0.00 39 1011.6
20260901075025 65 118 1.0 2.0 0.00 0.00 0.00 39 1011.6
20260901074804 65 121 1.0 2.0 0.00 0.00 0.00 38 1011.6
20260901074625 65 119 1.0 2.0 0.00 0.00 0.00 38 1011.5
20260901074425 65 118 1.0 1.0 0.00 0.00 0.00 38 1011.5
20260901074204 65 118 1.0 2.0 0.00 0.00 0.00 37 1011.5
20260901074005 65 117 1.0 2.0 0.00 0.00 0.00 37 1011.5
20260901073825 65 116 1.0 2.0 0.00 0.00 0.00 37 1011.4
20260901073604 65 116 1.0 2.0 0.00 0.00 0.00 38 1011.4
20260901073404 65 116 1.0 2.0 0.00 0.00 0.00 38 1011.4
20260901073204 65 113 0.0 2.0 0.00 0.00 0.00 38 1011.5
20260901073004 65 110 0.0 2.0 0.00 0.00 0.00 39 1011.5
20260901072804 65 0 0.0 0.0 0.00 0.00 0.00 39 1011.5
20260901072604 65 0 0.0 0.0 0.00 0.00 0.00 39 1011.4
20260901072425 65 0 0.0 0.0 0.00 0.00 0.00 40 1011.4
20260901072204 65 102 0.0 1.0 0.00 0.00 0.00 40 1011.4
20260901072004 65 102 0.0 1.0 0.00 0.00 0.00 40 1011.4
20260901071804 65 102 0.0 1.0 0.00 0.00 0.00 39 1011.4
20260901071604 65 102 0.0 1.0 0.00 0.00 0.00 39 1011.4
20260901071404 65 102 0.0 1.0 0.00 0.00 0.00 39 1011.4
20260901071204 65 88 0.0 1.0 0.00 0.00 0.00 39 1011.4
20260901071004 65 89 0.0 2.0 0.00 0.00 0.00 39 1011.4
20260901070804 65 85 1.0 3.0 0.00 0.00 0.00 39 1011.4
20260901070604 64 85 1.0 3.0 0.00 0.00 0.00 39 1011.4
20260901070404 64 85 1.0 3.0 0.00 0.00 0.00 39 1011.5
20260901070204 64 86 1.0 3.0 0.00 0.00 0.00 39 1011.5
20260901070025 64 86 1.0 3.0 0.00 0.00 0.00 39 1011.5
20260901065804 65 88 2.0 3.0 0.00 0.00 0.00 40 1011.5
20260901065604 65 90 1.0 3.0 0.00 0.00 0.00 40 1011.4
20260901065404 65 91 2.0 3.0 0.00 0.00 0.00 40 1011.4
20260901065225 65 90 2.0 3.0 0.00 0.00 0.00 40 1011.4
20260901065004 65 90 2.0 3.0 0.00 0.00 0.00 40 1011.4
20260901064804 65 88 2.0 3.0 0.00 0.00 0.00 40 1011.4
20260901064604 65 86 2.0 3.0 0.00 0.00 0.00 40 1011.4
20260901064404 65 86 2.0 3.0 0.00 0.00 0.00 39 1011.3
20260901064204 65 84 2.0 3.0 0.00 0.00 0.00 39 1011.4
20260901064004 65 84 2.0 3.0 0.00 0.00 0.00 39 1011.4
20260901063804 65 86 2.0 3.0 0.00 0.00 0.00 39 1011.4
20260901063625 65 85 2.0 3.0 0.00 0.00 0.00 39 1011.3
20260901063404 64 86 2.0 3.0 0.00 0.00 0.00 39 1011.3
20260901063204 65 89 2.0 3.0 0.00 0.00 0.00 39 1011.4
20260901063004 65 89 2.0 3.0 0.00 0.00 0.00 39 1011.3
20260901062804 65 87 2.0 3.0 0.00 0.00 0.00 39 1011.3
20260901062604 65 89 1.0 3.0 0.00 0.00 0.00 39 1011.3
20260901062425 65 89 1.0 3.0 0.00 0.00 0.00 39 1011.3
20260901062204 65 85 1.0 3.0 0.00 0.00 0.00 39 1011.3
20260901062004 65 83 0.0 3.0 0.00 0.00 0.00 39 1011.3
20260901061804 66 103 0.0 1.0 0.00 0.00 0.00 39 1011.4
20260901061604 66 0 0.0 0.0 0.00 0.00 0.00 40 1011.4
20260901061425 66 0 0.0 0.0 0.00 0.00 0.00 40 1011.4
20260901061204 66 0 0.0 0.0 0.00 0.00 0.00 40 1011.4
20260901061004 66 0 0.0 0.0 0.00 0.00 0.00 41 1011.4
20260901060804 66 0 0.0 0.0 0.00 0.00 0.00 41 1011.4
20260901060604 66 0 0.0 0.0 0.00 0.00 0.00 41 1011.5
20260901060404 66 0 0.0 0.0 0.00 0.00 0.00 41 1011.4
20260901060204 66 0 0.0 0.0 0.00 0.00 0.00 40 1011.4
20260901060005 66 0 0.0 0.0 0.00 0.00 0.00 40 1011.4
20260901055804 66 0 0.0 0.0 0.00 0.00 0.00 39 1011.4
20260901055604 67 82 0.0 1.0 0.00 0.00 0.00 39 1011.4
20260901055404 67 82 0.0 1.0 0.00 0.00 0.00 38 1011.4
20260901055204 67 104 0.0 2.0 0.00 0.00 0.00 37 1011.4
20260901055004 67 104 0.0 3.0 0.00 0.00 0.00 38 1011.4
20260901054804 67 104 0.0 3.0 0.00 0.00 0.00 38 1011.4
20260901054604 67 104 0.0 3.0 0.00 0.00 0.00 38 1011.4
20260901054404 67 104 0.0 3.0 0.00 0.00 0.00 38 1011.4
20260901054204 67 105 0.0 3.0 0.00 0.00 0.00 38 1011.4
20260901054004 67 125 0.0 1.0 0.00 0.00 0.00 38 1011.3
20260901053804 67 127 0.0 1.0 0.00 0.00 0.00 37 1011.3
20260901053604 67 127 0.0 1.0 0.00 0.00 0.00 37 1011.2
20260901053404 67 127 0.0 1.0 0.00 0.00 0.00 37 1011.3
20260901053204 67 0 0.0 0.0 0.00 0.00 0.00 38 1011.2
20260901053004 67 0 0.0 0.0 0.00 0.00 0.00 38 1011.2
20260901052804 67 0 0.0 0.0 0.00 0.00 0.00 38 1011.2
20260901052604 67 0 0.0 0.0 0.00 0.00 0.00 39 1011.2
20260901052404 67 0 0.0 0.0 0.00 0.00 0.00 39 1011.1
20260901052225 67 0 0.0 0.0 0.00 0.00 0.00 40 1011.1
20260901052004 67 91 0.0 1.0 0.00 0.00 0.00 41 1011.1
20260901051804 67 92 0.0 1.0 0.00 0.00 0.00 41 1011.1
20260901051604 67 93 0.0 2.0 0.00 0.00 0.00 41 1011.0
20260901051404 67 93 1.0 2.0 0.00 0.00 0.00 41 1011.0
20260901051225 68 92 1.0 3.0 0.00 0.00 0.00 40 1011.0
20260901051026 68 92 1.0 3.0 0.00 0.00 0.00 40 1011.0
20260901050825 68 90 1.0 3.0 0.00 0.00 0.00 40 1011.0
20260901050604 67 88 1.0 3.0 0.00 0.00 0.00 40 1011.1
20260901050404 67 86 1.0 3.0 0.00 0.00 0.00 39 1011.1
20260901050204 67 86 2.0 3.0 0.00 0.00 0.00 39 1011.1
20260901050004 67 85 2.0 3.0 0.00 0.00 0.00 38 1011.1
20260901045804 67 87 2.0 3.0 0.00 0.00 0.00 37 1011.1
20260901045604 68 86 2.0 3.0 0.00 0.00 0.00 37 1011.1
20260901045425 67 86 2.0 3.0 0.00 0.00 0.00 36 1011.1
20260901045204 67 85 2.0 4.0 0.00 0.00 0.00 35 1011.1
20260901045004 67 85 2.0 4.0 0.00 0.00 0.00 34 1011.1
20260901044804 67 85 2.0 4.0 0.00 0.00 0.00 34 1011.1
20260901044604 67 86 2.0 4.0 0.00 0.00 0.00 33 1011.1
20260901044404 68 88 2.0 4.0 0.00 0.00 0.00 33 1011.1
20260901044204 68 90 2.0 4.0 0.00 0.00 0.00 33 1011.1
20260901044004 68 91 2.0 4.0 0.00 0.00 0.00 33 1011.1
20260901043804 68 88 2.0 4.0 0.00 0.00 0.00 33 1011.1
20260901043604 68 87 1.0 4.0 0.00 0.00 0.00 33 1011.1
20260901043404 68 86 1.0 3.0 0.00 0.00 0.00 33 1011.1
20260901043225 68 86 1.0 3.0 0.00 0.00 0.00 34 1011.1
20260901043004 68 88 1.0 3.0 0.00 0.00 0.00 34 1011.1
20260901042804 68 91 1.0 2.0 0.00 0.00 0.00 34 1011.1
20260901042604 68 91 1.0 2.0 0.00 0.00 0.00 34 1011.0
20260901042404 68 92 1.0 2.0 0.00 0.00 0.00 34 1011.0
20260901042204 68 93 1.0 2.0 0.00 0.00 0.00 34 1011.0
20260901042004 68 93 1.0 2.0 0.00 0.00 0.00 35 1011.0
20260901041825 68 93 1.0 2.0 0.00 0.00 0.00 35 1010.9
20260901041604 68 93 1.0 3.0 0.00 0.00 0.00 35 1010.9
20260901041404 68 92 2.0 3.0 0.00 0.00 0.00 36 1010.9
20260901041204 67 91 2.0 3.0 0.00 0.00 0.00 36 1010.8
20260901041004 67 91 2.0 3.0 0.00 0.00 0.00 36 1010.7
20260901040804 67 91 2.0 3.0 0.00 0.00 0.00 37 1010.8
20260901040605 67 90 2.0 3.0 0.00 0.00 0.00 37 1010.7
20260901040404 67 90 2.0 3.0 0.00 0.00 0.00 37 1010.7
20260901040205 67 90 2.0 3.0 0.00 0.00 0.00 36 1010.7
20260901040004 68 88 1.0 3.0 0.00 0.00 0.00 36 1010.7
20260901035804 68 88 1.0 3.0 0.00 0.00 0.00 36 1010.7
20260901035604 68 91 1.0 3.0 0.00 0.00 0.00 36 1010.7
20260901035404 68 93 1.0 3.0 0.00 0.00 0.00 36 1010.7
20260901035204 68 94 1.0 3.0 0.00 0.00 0.00 36 1010.7
20260901035004 68 94 1.0 3.0 0.00 0.00 0.00 36 1010.7
20260901034804 68 92 1.0 3.0 0.00 0.00 0.00 37 1010.7
20260901034604 68 90 1.0 3.0 0.00 0.00 0.00 37 1010.7
20260901034404 68 90 1.0 3.0 0.00 0.00 0.00 37 1010.6
20260901034204 68 90 1.0 3.0 0.00 0.00 0.00 37 1010.7
20260901034004 68 89 1.0 3.0 0.00 0.00 0.00 37 1010.6
20260901033804 69 92 1.0 3.0 0.00 0.00 0.00 37 1010.6
20260901033604 69 93 1.0 2.0 0.00 0.00 0.00 37 1010.5
20260901033404 69 92 1.0 2.0 0.00 0.00 0.00 37 1010.5
20260901033204 69 91 1.0 2.0 0.00 0.00 0.00 38 1010.6
20260901033004 69 92 1.0 2.0 0.00 0.00 0.00 38 1010.5
20260901032804 69 90 0.0 2.0 0.00 0.00 0.00 38 1010.5
20260901032604 69 0 0.0 0.0 0.00 0.00 0.00 38 1010.4
20260901032404 69 0 0.0 0.0 0.00 0.00 0.00 39 1010.4
20260901032204 69 0 0.0 0.0 0.00 0.00 0.00 39 1010.4
20260901032004 69 0 0.0 0.0 0.00 0.00 0.00 39 1010.3
20260901031804 69 0 0.0 0.0 0.00 0.00 0.00 38 1010.3
20260901031604 69 0 0.0 0.0 0.00 0.00 0.00 39 1010.3
20260901031404 70 0 0.0 0.0 0.00 0.00 0.00 38 1010.3
20260901031205 70 0 0.0 0.0 0.00 0.00 0.00 38 1010.2
20260901031004 70 0 0.0 0.0 0.00 0.00 0.00 38 1010.2
20260901030804 70 0 0.0 0.0 0.00 0.00 0.00 38 1010.2
20260901030625 70 0 0.0 0.0 0.00 0.00 0.00 38 1010.2
20260901030404 71 0 0.0 0.0 0.00 0.00 0.00 38 1010.1
20260901030204 71 0 0.0 0.0 0.00 0.00 0.00 38 1010.1
20260901030004 71 0 0.0 0.0 0.00 0.00 0.00 37 1010.0
20260901025804 71 0 0.0 0.0 0.00 0.00 0.00 37 1009.9
20260901025604 71 0 0.0 0.0 0.00 0.00 0.00 36 1009.9
20260901025405 72 0 0.0 0.0 0.00 0.00 0.00 36 1009.8
20260901025204 72 354 0.0 3.0 0.00 0.00 0.00 36 1009.8
20260901025025 72 354 0.0 3.0 0.00 0.00 0.00 36 1009.8
20260901024825 72 351 0.0 3.0 0.00 0.00 0.00 37 1009.7
20260901024625 72 347 0.0 3.0 0.00 0.00 0.00 37 1009.6
20260901024404 72 344 0.0 3.0 0.00 0.00 0.00 37 1009.6
20260901024204 72 339 0.0 3.0 0.00 0.00 0.00 37 1009.5
20260901024004 72 339 0.0 3.0 0.00 0.00 0.00 37 1009.5
20260901023825 73 336 0.0 3.0 0.00 0.00 0.00 37 1009.6
20260901023604 73 336 0.0 3.0 0.00 0.00 0.00 38 1009.5
20260901023404 73 338 0.0 3.0 0.00 0.00 0.00 39 1009.5
20260901023225 73 334 0.0 3.0 0.00 0.00 0.00 40 1009.5
20260901023004 73 334 0.0 3.0 0.00 0.00 0.00 40 1009.4
20260901022804 74 341 0.0 3.0 0.00 0.00 0.00 41 1009.4
20260901022604 74 341 0.0 3.0 0.00 0.00 0.00 40 1009.4
20260901022404 74 310 0.0 3.0 0.00 0.00 0.00 41 1009.4
20260901022204 74 305 0.0 3.0 0.00 0.00 0.00 40 1009.4
20260901022004 75 304 0.0 3.0 0.00 0.00 0.00 40 1009.4
20260901021804 75 304 0.0 3.0 0.00 0.00 0.00 40 1009.4
20260901021604 75 306 0.0 3.0 0.00 0.00 0.00 40 1009.4
20260901021404 76 311 0.0 3.0 0.00 0.00 0.00 39 1009.3
20260901021205 76 305 0.0 3.0 0.00 0.00 0.00 39 1009.3
20260901021004 76 305 0.0 3.0 0.00 0.00 0.00 39 1009.3
20260901020804 76 305 0.0 3.0 0.00 0.00 0.00 38 1009.2
20260901020604 76 304 0.0 3.0 0.00 0.00 0.00 38 1009.3
20260901020404 76 328 0.0 4.0 0.00 0.00 0.00 38 1009.3
20260901020204 76 342 1.0 4.0 0.00 0.00 0.00 38 1009.2
20260901020004 76 343 1.0 4.0 0.00 0.00 0.00 37 1009.2
20260901015805 76 339 1.0 4.0 0.00 0.00 0.00 37 1009.2
20260901015604 77 332 1.0 5.0 0.00 0.00 0.00 36 1009.2
20260901015404 77 326 1.0 5.0 0.00 0.00 0.00 36 1009.2
20260901015204 77 327 1.0 5.0 0.00 0.00 0.00 37 1009.1
20260901015004 77 317 1.0 5.0 0.00 0.00 0.00 36 1009.1
20260901014804 77 324 1.0 5.0 0.00 0.00 0.00 37 1009.2
20260901014604 77 327 1.0 5.0 0.00 0.00 0.00 37 1009.2
20260901014404 77 323 2.0 7.0 0.00 0.00 0.00 37 1009.2
20260901014204 77 314 2.0 7.0 0.00 0.00 0.00 37 1009.2
20260901014025 77 313 3.0 7.0 0.00 0.00 0.00 37 1009.2
20260901013804 77 305 3.0 7.0 0.00 0.00 0.00 37 1009.1
20260901013604 78 301 3.0 7.0 0.00 0.00 0.00 37 1009.1
20260901013404 78 300 3.0 7.0 0.00 0.00 0.00 38 1009.0